Menomonie, WI

8:15 PM CST on February 09, 2016 (GMT -0600)
Menomonie

Weather History for KLUM - September, 2012

Change the Weather History Date:

Tuesday, September 4, 2012

  Actual Average (KEAU) Record (KEAU)
Temperature  
Mean Temperature 76 °F 65 °F  
Max Temperature 91 °F 76 °F 96 °F (1922)
Min Temperature 62 °F 54 °F 33 °F (1974)
Degree Days  
Heating Degree Days 0 3  
Month to date heating degree days 10  
Since 1 July heating degree days 49  
Cooling Degree Days 12 3  
Month to date cooling degree days 12  
Year to date cooling degree days 539  
Growing Degree Days 26 (Base 50)    
Moisture  
Dew Point 64 °F    
Average Humidity 75    
Maximum Humidity 100    
Minimum Humidity 38    
Precipitation  
Precipitation 0.00 in 0.12 in 0.97 in (1989)
Month to date precipitation 0.49  
Year to date precipitation 22.61  
Snow  
Snow 0.00 in 0.00 in 0.00 in ()
Month to date snowfall 0.0  
Since 1 July snowfall 0.0  
Since 1 September snowfall 0.0  
Snow Depth -    
Sea Level Pressure  
Sea Level Pressure 29.84 in    
Wind  
Wind Speed 3 mph (SSE)    
Max Wind Speed 16 mph    
Max Gust Speed 20 mph    
Visibility 6 miles    
Events Fog , Thunderstorm    
T = Trace of Precipitation, MM = Missing Value Source: NWS Daily Summary

Daily Weather History Graph

Daily Weather History Graph

Search for Another Location

Airport or City:

Trip Planner

Search our weather history database for the weather conditions in past years. The results will help you decide how hot, cold, wet, or windy it might be!

Date:

Astronomy

Sep. 04, 2012 Rise Set
Actual Time 6:33 AM CDT 7:37 PM CDT
Civil Twilight 6:03 AM CDT 8:07 PM CDT
Nautical Twilight 5:27 AM CDT 8:43 PM CDT
Astronomical Twilight 4:49 AM CDT 9:21 PM CDT
Moon 9:16 PM CDT (9/4) 10:54 AM CDT (9/4)
Length of Visible Light 14h 04m
Length of Day
13h 04m
Waning Gibbous, 83% of the Moon is Illuminated
Sep 4
Waning Gibbous
Sep 8
Last Quarter
Sep 15
New
Sep 22
First Quarter
Sep 29
Full

Hourly Weather History & Observations

Time (CDT) Temp. Heat Index Dew Point Humidity Pressure Visibility Wind Dir Wind Speed Gust Speed Precip Events Conditions
12:15 AM 68.0 °F - 66.2 °F 94% 29.90 in 5.0 mi Calm Calm - N/A   Clear
12:35 AM 68.0 °F - 66.2 °F 94% 29.89 in 5.0 mi East 3.5 mph - N/A   Clear
12:55 AM 66.2 °F - 64.4 °F 94% 29.90 in 4.0 mi Calm Calm - N/A   Clear
1:15 AM 66.2 °F - 64.4 °F 94% 29.90 in 3.0 mi Calm Calm - N/A   Clear
1:35 AM 66.2 °F - 64.4 °F 94% 29.91 in 2.5 mi Calm Calm - N/A   Clear
1:55 AM 64.4 °F - 62.6 °F 94% 29.91 in 0.5 mi Calm Calm - N/A Fog Fog
2:15 AM 64.4 °F - 62.6 °F 94% 29.90 in 0.5 mi Calm Calm - N/A Fog Fog
2:35 AM 62.6 °F - 62.6 °F 100% 29.90 in 1.2 mi Calm Calm - N/A   Mostly Cloudy
2:55 AM 64.4 °F - 62.6 °F 94% 29.90 in 2.5 mi Calm Calm - N/A   Scattered Clouds
3:15 AM 64.4 °F - 62.6 °F 94% 29.89 in 5.0 mi Calm Calm - N/A   Clear
3:35 AM 62.6 °F - 62.6 °F 100% 29.88 in 2.5 mi Calm Calm - N/A   Clear
3:55 AM 62.6 °F - 62.6 °F 100% 29.88 in 0.5 mi East 3.5 mph - N/A Fog Fog
4:15 AM 62.6 °F - 62.6 °F 100% 29.88 in 2.5 mi Calm Calm - N/A   Mostly Cloudy
4:35 AM 62.6 °F - 62.6 °F 100% 29.88 in 0.2 mi Calm Calm - N/A Fog Fog
4:55 AM 62.6 °F - 62.6 °F 100% 29.87 in 0.5 mi ENE 5.8 mph - N/A Fog Fog
5:15 AM 62.6 °F - 62.6 °F 100% 29.87 in 0.8 mi East 4.6 mph - N/A   Overcast
5:35 AM 62.6 °F - 62.6 °F 100% 29.88 in 0.5 mi Calm Calm - N/A Fog Fog
5:55 AM 64.4 °F - 62.6 °F 94% 29.87 in 0.5 mi East 4.6 mph - N/A Fog Fog
6:15 AM 64.4 °F - 62.6 °F 94% 29.87 in 0.5 mi East 3.5 mph - N/A Fog Fog
6:35 AM 64.4 °F - 62.6 °F 94% 29.88 in 0.5 mi Calm Calm - N/A Fog Fog
6:55 AM 64.4 °F - 62.6 °F 94% 29.88 in 0.5 mi Calm Calm - N/A Fog Fog
7:15 AM 64.4 °F - 64.4 °F 100% 29.88 in 0.2 mi Calm Calm - N/A Fog Fog
7:35 AM 64.4 °F - 64.4 °F 100% 29.88 in 0.2 mi Calm Calm - N/A Fog Fog
7:55 AM 64.4 °F - 64.4 °F 100% 29.88 in 0.2 mi Calm Calm - N/A Fog Fog
8:15 AM 66.2 °F - 64.4 °F 94% 29.89 in 0.2 mi Calm Calm - N/A Fog Fog
8:35 AM 66.2 °F - 66.2 °F 100% 29.88 in 0.2 mi Calm Calm - N/A Fog Fog
8:55 AM 68.0 °F - 66.2 °F 94% 29.88 in 0.2 mi Calm Calm - N/A Fog Fog
9:15 AM 68.0 °F - 68.0 °F 100% 29.88 in 0.2 mi Calm Calm - N/A Fog Fog
9:35 AM 68.0 °F - 68.0 °F 100% 29.88 in 1.0 mi Calm Calm - N/A   Overcast
9:55 AM 69.8 °F - 69.8 °F 100% 29.88 in 5.0 mi Calm Calm - N/A   Mostly Cloudy
10:15 AM 71.6 °F - 71.6 °F 100% 29.88 in 7.0 mi ESE 3.5 mph - N/A   Scattered Clouds
10:35 AM 77.0 °F - 69.8 °F 78% 29.88 in 10.0 mi SE 3.5 mph - N/A   Clear
10:55 AM 78.8 °F - 69.8 °F 74% 29.87 in 10.0 mi ESE 5.8 mph - N/A   Scattered Clouds
11:15 AM 82.4 °F 85.4 °F 68.0 °F 62% 29.86 in 10.0 mi SSE 8.1 mph - N/A   Scattered Clouds
11:35 AM 82.4 °F 84.6 °F 66.2 °F 58% 29.86 in 10.0 mi SSE 11.5 mph - N/A   Clear
11:55 AM 86.0 °F 86.6 °F 62.6 °F 45% 29.85 in 10.0 mi SSE 9.2 mph - N/A   Clear
12:15 PM 86.0 °F 87.3 °F 64.4 °F 48% 29.84 in 10.0 mi South 10.4 mph 18.4 mph N/A   Clear
12:35 PM 87.8 °F 89.4 °F 64.4 °F 46% 29.83 in 10.0 mi South 6.9 mph - N/A   Clear
12:55 PM 87.8 °F 88.5 °F 62.6 °F 43% 29.83 in 10.0 mi South 10.4 mph 17.3 mph N/A   Clear
1:15 PM 89.6 °F 90.1 °F 62.6 °F 40% 29.82 in 10.0 mi South 12.7 mph 19.6 mph N/A   Clear
1:35 PM 89.6 °F 90.1 °F 62.6 °F 40% 29.82 in 10.0 mi South 16.1 mph - N/A   Scattered Clouds
1:55 PM 89.6 °F 90.1 °F 62.6 °F 40% 29.82 in 10.0 mi SW 12.7 mph 16.1 mph N/A   Scattered Clouds
2:35 PM 87.8 °F 89.4 °F 64.4 °F 46% 29.80 in 10.0 mi South 10.4 mph 17.3 mph N/A   Mostly Cloudy
2:55 PM 89.6 °F 90.1 °F 62.6 °F 40% 29.80 in 10.0 mi WSW 10.4 mph 19.6 mph N/A   Scattered Clouds
3:15 PM 89.6 °F 90.1 °F 62.6 °F 40% 29.79 in 10.0 mi SW 11.5 mph - N/A   Clear
3:35 PM 91.4 °F 92.1 °F 62.6 °F 38% 29.78 in 10.0 mi SSW 12.7 mph 19.6 mph N/A   Clear
3:55 PM 91.4 °F 92.1 °F 62.6 °F 38% 29.77 in 10.0 mi South 11.5 mph 17.3 mph N/A   Scattered Clouds
4:15 PM 89.6 °F 91.1 °F 64.4 °F 43% 29.75 in 10.0 mi South 12.7 mph - N/A   Scattered Clouds
4:35 PM 89.6 °F 91.1 °F 64.4 °F 43% 29.75 in 10.0 mi SW 13.8 mph - N/A Thunderstorm Scattered Clouds
4:55 PM 89.6 °F 91.1 °F 64.4 °F 43% 29.74 in 10.0 mi WSW 13.8 mph 19.6 mph N/A Thunderstorm Scattered Clouds
5:15 PM 89.6 °F 90.1 °F 62.6 °F 40% 29.75 in 10.0 mi WSW 13.8 mph - N/A Thunderstorm Scattered Clouds
5:35 PM 87.8 °F 88.5 °F 62.6 °F 43% 29.75 in 10.0 mi WSW 9.2 mph 12.7 mph N/A   Clear
5:55 PM 87.8 °F 87.6 °F 60.8 °F 40% 29.76 in 10.0 mi WSW 5.8 mph - N/A Thunderstorm Clear
6:15 PM 86.0 °F 86.1 °F 60.8 °F 43% 29.77 in 10.0 mi SW 9.2 mph - N/A   Clear
6:35 PM 86.0 °F 86.1 °F 60.8 °F 43% 29.77 in 10.0 mi South 6.9 mph - N/A   Clear
6:55 PM 84.2 °F 84.4 °F 60.8 °F 45% 29.77 in 10.0 mi South 4.6 mph - N/A   Clear
7:15 PM 82.4 °F 82.9 °F 60.8 °F 48% 29.78 in 10.0 mi SSW 4.6 mph - N/A   Clear
7:35 PM 80.6 °F 81.5 °F 60.8 °F 51% 29.78 in 10.0 mi Calm Calm - N/A   Clear
7:55 PM 77.0 °F - 62.6 °F 61% 29.79 in 10.0 mi NE 5.8 mph - N/A   Clear
8:15 PM 73.4 °F - 62.6 °F 69% 29.79 in 10.0 mi East 8.1 mph - N/A   Clear
8:35 PM 71.6 °F - 62.6 °F 73% 29.79 in 10.0 mi East 4.6 mph - N/A   Clear
8:55 PM 71.6 °F - 62.6 °F 73% 29.79 in 0.8 mi Calm Calm - N/A   Haze
9:15 PM 69.8 °F - 62.6 °F 78% 29.78 in 3.0 mi Calm Calm - N/A   Haze
9:35 PM 68.0 °F - 62.6 °F 83% 29.78 in 3.0 mi East 4.6 mph - N/A   Haze
9:55 PM 68.0 °F - 62.6 °F 83% 29.78 in 10.0 mi East 6.9 mph - N/A   Clear
10:15 PM 66.2 °F - 60.8 °F 83% 29.78 in 10.0 mi ESE 3.5 mph - N/A   Clear
10:35 PM 64.4 °F - 60.8 °F 88% 29.79 in 10.0 mi Calm Calm - N/A   Clear
10:55 PM 64.4 °F - 60.8 °F 88% 29.78 in 10.0 mi East 3.5 mph - N/A   Clear
11:15 PM 62.6 °F - 60.8 °F 94% 29.79 in 10.0 mi East 3.5 mph - N/A   Clear
11:55 PM 62.6 °F - 60.8 °F 94% 29.79 in 10.0 mi East 4.6 mph - N/A   Clear